INTELSAT 16 (IS-16) (36397 NORAD) Tracking and Keplerian Element Data

This shows tracking and keplerian element data for the satellite.

Feedback or suggestion? Click here.




ElementValue
Catalog36397
NameINTELSAT 16 (IS-16)
Epoch Orbit3077
Epoch Day201.48334453
Epoch Year2018
RAAN48.5984
Inclination0.0202
Eccentricity0.0002332
Argument of Perigee65.8768
Mean Anonmoly281.5357
Mean Motion1.00269998
Decay Rate-2.61E-06
L11 36397U 10006A 18201.48334453 -.00000261 00000-0 00000+0 0 9990
L22 36397 0.0202 48.5984 0002332 65.8768 281.5357 1.00269998 30774

Live tracking and technical data element details for INTELSAT 16 (IS-16) (NORAD 36397). INTELSAT 16 (IS-16) can be tracked NOW for your location showing map with azimuth and elevation plus other details from your city location.

Track the satellite on the map from your city or location and see movement details for azimuth, elevation, latitude, longitude, range, height, and movement on the map or in text.







IsCatalogInMostPopularTable: catalog: 36397, numindb: 41
Update: records affected: 1



GetName: 36397 INTELSAT 16 (IS-16)

Hit Count: updated at: Sat, 21 Jul 2018 07:50:53 GMT